Year,Month,Day,Hour,Minute,Value (Times are PST for temperature in C)
2019,04,02,00,00,8.70
2019,04,02,00,01,8.70
2019,04,02,00,02,8.70
2019,04,02,00,03,8.70
2019,04,02,00,04,8.70
2019,04,02,00,05,8.60
2019,04,02,00,06,8.60
2019,04,02,00,07,8.60
2019,04,02,00,08,8.60
2019,04,02,00,09,8.60
2019,04,02,00,10,8.50
2019,04,02,00,11,8.50
2019,04,02,00,12,8.40
2019,04,02,00,13,8.40
2019,04,02,00,14,8.40
2019,04,02,00,15,8.30
2019,04,02,00,16,8.30
2019,04,02,00,17,8.30
2019,04,02,00,18,8.30
2019,04,02,00,19,8.20
2019,04,02,00,20,8.20
2019,04,02,00,21,8.20
2019,04,02,00,22,8.20
2019,04,02,00,23,8.20
2019,04,02,00,24,8.20
2019,04,02,00,25,8.10
2019,04,02,00,26,8.10
2019,04,02,00,27,8.10
2019,04,02,00,28,8.10
2019,04,02,00,29,8.10
2019,04,02,00,30,8.10
2019,04,02,00,31,8.10
2019,04,02,00,32,8.00
2019,04,02,00,33,8.00
2019,04,02,00,34,8.00
2019,04,02,00,35,8.00
2019,04,02,00,36,8.00
2019,04,02,00,37,8.00
2019,04,02,00,38,8.00
2019,04,02,00,39,8.00
2019,04,02,00,40,8.00
2019,04,02,00,41,8.00
2019,04,02,00,42,8.10
2019,04,02,00,43,8.10
2019,04,02,00,44,8.00
2019,04,02,00,45,8.00
2019,04,02,00,46,8.00
2019,04,02,00,47,8.00
2019,04,02,00,48,8.00
2019,04,02,00,49,8.00
2019,04,02,00,50,8.00
2019,04,02,00,51,8.00
2019,04,02,00,52,8.00
2019,04,02,00,53,8.00
2019,04,02,00,54,8.00
2019,04,02,00,55,8.00
2019,04,02,00,56,7.90
2019,04,02,00,57,7.90
2019,04,02,00,58,7.90
2019,04,02,00,59,7.90
2019,04,02,01,00,7.90
2019,04,02,01,01,7.90
2019,04,02,01,02,7.90
2019,04,02,01,03,7.90
2019,04,02,01,04,7.90
2019,04,02,01,05,7.90
2019,04,02,01,06,7.80
2019,04,02,01,07,7.80
2019,04,02,01,08,7.80
2019,04,02,01,09,7.80
2019,04,02,01,10,7.80
2019,04,02,01,11,7.80
2019,04,02,01,12,7.70
2019,04,02,01,13,7.70
2019,04,02,01,14,7.70
2019,04,02,01,15,7.70
2019,04,02,01,16,7.70
2019,04,02,01,17,7.70
2019,04,02,01,18,7.70
2019,04,02,01,19,7.70
2019,04,02,01,20,7.70
2019,04,02,01,21,7.70
2019,04,02,01,22,7.60
2019,04,02,01,23,7.60
2019,04,02,01,24,7.70
2019,04,02,01,25,7.70
2019,04,02,01,26,7.70
2019,04,02,01,27,7.70
2019,04,02,01,28,7.70
2019,04,02,01,29,7.60
2019,04,02,01,30,7.60
2019,04,02,01,31,7.60
2019,04,02,01,32,7.60
2019,04,02,01,33,7.50
2019,04,02,01,34,7.50
2019,04,02,01,35,7.50
2019,04,02,01,36,7.40
2019,04,02,01,37,7.40
2019,04,02,01,38,7.40
2019,04,02,01,39,7.40
2019,04,02,01,40,7.40
2019,04,02,01,41,7.40
2019,04,02,01,42,7.30
2019,04,02,01,43,7.30
2019,04,02,01,44,7.30
2019,04,02,01,45,7.30
2019,04,02,01,46,7.30
2019,04,02,01,47,7.30
2019,04,02,01,48,7.40
2019,04,02,01,49,7.30
2019,04,02,01,50,7.30
2019,04,02,01,51,7.30
2019,04,02,01,52,7.30
2019,04,02,01,53,7.30
2019,04,02,01,54,7.30
2019,04,02,01,55,7.30
2019,04,02,01,56,7.30
2019,04,02,01,57,7.30
2019,04,02,01,58,7.30
2019,04,02,01,59,7.30
2019,04,02,02,00,7.30
2019,04,02,02,01,7.30
2019,04,02,02,02,7.30
2019,04,02,02,03,7.30
2019,04,02,02,04,7.30
2019,04,02,02,05,7.30
2019,04,02,02,06,7.30
2019,04,02,02,07,7.30
2019,04,02,02,08,7.20
2019,04,02,02,09,7.20
2019,04,02,02,10,7.20
2019,04,02,02,11,7.20
2019,04,02,02,12,7.20
2019,04,02,02,13,7.20
2019,04,02,02,14,7.20
2019,04,02,02,15,7.20
2019,04,02,02,16,7.20
2019,04,02,02,17,7.20
2019,04,02,02,18,7.20
2019,04,02,02,19,7.20
2019,04,02,02,20,7.20
2019,04,02,02,21,7.20
2019,04,02,02,22,7.20
2019,04,02,02,23,7.20
2019,04,02,02,24,7.20
2019,04,02,02,25,7.10
2019,04,02,02,26,7.10
2019,04,02,02,27,7.10
2019,04,02,02,28,7.10
2019,04,02,02,29,7.10
2019,04,02,02,30,7.10
2019,04,02,02,31,7.10
2019,04,02,02,32,7.10
2019,04,02,02,33,7.10
2019,04,02,02,34,7.10
2019,04,02,02,35,7.10
2019,04,02,02,36,7.10
2019,04,02,02,37,7.10
2019,04,02,02,38,7.10
2019,04,02,02,39,7.10
2019,04,02,02,40,7.10
2019,04,02,02,41,7.10
2019,04,02,02,42,7.10
2019,04,02,02,43,7.10
2019,04,02,02,44,7.00
2019,04,02,02,45,7.00
2019,04,02,02,46,7.00
2019,04,02,02,47,7.00
2019,04,02,02,48,7.00
2019,04,02,02,49,6.90
2019,04,02,02,50,6.90
2019,04,02,02,51,6.90
2019,04,02,02,52,6.90
2019,04,02,02,53,6.90
2019,04,02,02,54,6.90
2019,04,02,02,55,6.90
2019,04,02,02,56,6.90
2019,04,02,02,57,6.90
2019,04,02,02,58,6.90
2019,04,02,02,59,6.90
2019,04,02,03,00,6.90
2019,04,02,03,01,6.90
2019,04,02,03,02,6.90
2019,04,02,03,03,6.90
2019,04,02,03,04,6.90
2019,04,02,03,05,6.90
2019,04,02,03,06,6.90
2019,04,02,03,07,6.90
2019,04,02,03,08,6.90
2019,04,02,03,09,6.90
2019,04,02,03,10,6.90
2019,04,02,03,11,6.90
2019,04,02,03,12,6.90
2019,04,02,03,13,6.90
2019,04,02,03,14,6.90
2019,04,02,03,15,6.90
2019,04,02,03,16,6.90
2019,04,02,03,17,6.90
2019,04,02,03,18,6.90
2019,04,02,03,19,6.90
2019,04,02,03,20,6.80
2019,04,02,03,21,6.80
2019,04,02,03,22,6.80
2019,04,02,03,23,6.80
2019,04,02,03,24,6.80
2019,04,02,03,25,6.80
2019,04,02,03,26,6.80
2019,04,02,03,27,6.80
2019,04,02,03,28,6.80
2019,04,02,03,29,6.80
2019,04,02,03,30,6.80
2019,04,02,03,31,6.80
2019,04,02,03,32,6.80
2019,04,02,03,33,6.80
2019,04,02,03,34,6.80
2019,04,02,03,35,6.80
2019,04,02,03,36,6.80
2019,04,02,03,37,6.80
2019,04,02,03,38,6.80
2019,04,02,03,39,6.80
2019,04,02,03,40,6.90
2019,04,02,03,41,6.90
2019,04,02,03,42,6.90
2019,04,02,03,43,6.90
2019,04,02,03,44,6.90
2019,04,02,03,45,6.90
2019,04,02,03,46,6.90
2019,04,02,03,47,6.90
2019,04,02,03,48,6.90
2019,04,02,03,49,6.90
2019,04,02,03,50,6.90
2019,04,02,03,51,7.00
2019,04,02,03,52,7.00
2019,04,02,03,53,7.00
2019,04,02,03,54,7.00
2019,04,02,03,55,7.00
2019,04,02,03,56,7.00
2019,04,02,03,57,7.00
2019,04,02,03,58,7.10
2019,04,02,03,59,7.10
2019,04,02,04,00,7.10
2019,04,02,04,01,7.10
2019,04,02,04,02,7.10
2019,04,02,04,03,7.10
2019,04,02,04,04,7.10
2019,04,02,04,05,7.10
2019,04,02,04,06,7.10
2019,04,02,04,07,7.10
2019,04,02,04,08,7.10
2019,04,02,04,09,7.10
2019,04,02,04,10,7.20
2019,04,02,04,11,7.20
2019,04,02,04,12,7.20
2019,04,02,04,13,7.20
2019,04,02,04,14,7.20
2019,04,02,04,15,7.20
2019,04,02,04,16,7.20
2019,04,02,04,17,7.20
2019,04,02,04,18,7.30
2019,04,02,04,19,7.30
2019,04,02,04,20,7.30
2019,04,02,04,21,7.30
2019,04,02,04,22,7.40
2019,04,02,04,23,7.40
2019,04,02,04,24,7.40
2019,04,02,04,25,7.40
2019,04,02,04,26,7.40
2019,04,02,04,27,7.40
2019,04,02,04,28,7.40
2019,04,02,04,29,7.40
2019,04,02,04,30,7.50
2019,04,02,04,31,7.50
2019,04,02,04,32,7.50
2019,04,02,04,33,7.50
2019,04,02,04,34,7.50
2019,04,02,04,35,7.50
2019,04,02,04,36,7.50
2019,04,02,04,37,7.50
2019,04,02,04,38,7.40
2019,04,02,04,39,7.40
2019,04,02,04,40,7.40
2019,04,02,04,41,7.40
2019,04,02,04,42,7.40
2019,04,02,04,43,7.30
2019,04,02,04,44,7.30
2019,04,02,04,45,7.30
2019,04,02,04,46,7.30
2019,04,02,04,47,7.30
2019,04,02,04,48,7.30
2019,04,02,04,49,7.30
2019,04,02,04,50,7.30
2019,04,02,04,51,7.30
2019,04,02,04,52,7.30
2019,04,02,04,53,7.30
2019,04,02,04,54,7.30
2019,04,02,04,55,7.30
2019,04,02,04,56,7.30
2019,04,02,04,57,7.30
2019,04,02,04,58,7.30
2019,04,02,04,59,7.40
2019,04,02,05,00,7.40
2019,04,02,05,01,7.40
2019,04,02,05,02,7.40
2019,04,02,05,03,7.40
2019,04,02,05,04,7.30
2019,04,02,05,05,7.30
2019,04,02,05,06,7.30
2019,04,02,05,07,7.30
2019,04,02,05,08,7.30
2019,04,02,05,09,7.30
2019,04,02,05,10,7.30
2019,04,02,05,11,7.20
2019,04,02,05,12,7.20
2019,04,02,05,13,7.20
2019,04,02,05,14,7.20
2019,04,02,05,15,7.20
2019,04,02,05,16,7.20
2019,04,02,05,17,7.20
2019,04,02,05,18,7.20
2019,04,02,05,19,7.20
2019,04,02,05,20,7.20
2019,04,02,05,21,7.20
2019,04,02,05,22,7.20
2019,04,02,05,23,7.20
2019,04,02,05,24,7.10
2019,04,02,05,25,7.10
2019,04,02,05,26,7.10
2019,04,02,05,27,7.10
2019,04,02,05,28,7.10
2019,04,02,05,29,7.10
2019,04,02,05,30,7.10
2019,04,02,05,31,7.10
2019,04,02,05,32,7.10
2019,04,02,05,33,7.10
2019,04,02,05,34,7.10
2019,04,02,05,35,7.10
2019,04,02,05,36,7.10
2019,04,02,05,37,7.10
2019,04,02,05,38,7.10
2019,04,02,05,39,7.10
2019,04,02,05,40,7.20
2019,04,02,05,41,7.20
2019,04,02,05,42,7.20
2019,04,02,05,43,7.20
2019,04,02,05,44,7.10
2019,04,02,05,45,7.10
2019,04,02,05,46,7.10
2019,04,02,05,47,7.10
2019,04,02,05,48,7.10
2019,04,02,05,49,7.10
2019,04,02,05,50,7.10
2019,04,02,05,51,7.10
2019,04,02,05,52,7.10
2019,04,02,05,53,7.10
2019,04,02,05,54,7.10
2019,04,02,05,55,7.10
2019,04,02,05,56,7.10
2019,04,02,05,57,7.10
2019,04,02,05,58,7.20
2019,04,02,05,59,7.20
2019,04,02,06,00,7.20
2019,04,02,06,01,7.30
2019,04,02,06,02,7.30
2019,04,02,06,03,7.30
2019,04,02,06,04,7.30
2019,04,02,06,05,7.30
2019,04,02,06,06,7.30
2019,04,02,06,07,7.30
2019,04,02,06,08,7.30
2019,04,02,06,09,7.30
2019,04,02,06,10,7.30
2019,04,02,06,11,7.30
2019,04,02,06,12,7.30
2019,04,02,06,13,7.30
2019,04,02,06,14,7.30
2019,04,02,06,15,7.30
2019,04,02,06,16,7.30
2019,04,02,06,17,7.30
2019,04,02,06,18,7.30
2019,04,02,06,19,7.30
2019,04,02,06,20,7.30
2019,04,02,06,21,7.30
2019,04,02,06,22,7.30
2019,04,02,06,23,7.20
2019,04,02,06,24,7.20
2019,04,02,06,25,7.20
2019,04,02,06,26,7.20
2019,04,02,06,27,7.20
2019,04,02,06,28,7.20
2019,04,02,06,29,7.20
2019,04,02,06,30,7.20
2019,04,02,06,31,7.20
2019,04,02,06,32,7.20
2019,04,02,06,33,7.20
2019,04,02,06,34,7.20
2019,04,02,06,35,7.10
2019,04,02,06,36,7.10
2019,04,02,06,37,7.10
2019,04,02,06,38,7.10
2019,04,02,06,39,7.10
2019,04,02,06,40,7.10
2019,04,02,06,41,7.10
2019,04,02,06,42,7.10
2019,04,02,06,43,7.00
2019,04,02,06,44,7.00
2019,04,02,06,45,7.00
2019,04,02,06,46,6.90
2019,04,02,06,47,6.90
2019,04,02,06,48,6.90
2019,04,02,06,49,6.90
2019,04,02,06,50,6.90
2019,04,02,06,51,6.90
2019,04,02,06,52,6.80
2019,04,02,06,53,6.80
2019,04,02,06,54,6.80
2019,04,02,06,55,6.80
2019,04,02,06,56,6.70
2019,04,02,06,57,6.70
2019,04,02,06,58,6.70
2019,04,02,06,59,6.70
2019,04,02,07,00,6.70
2019,04,02,07,01,6.70
2019,04,02,07,02,6.70
2019,04,02,07,03,6.60
2019,04,02,07,04,6.60
2019,04,02,07,05,6.60
2019,04,02,07,06,6.60
2019,04,02,07,07,6.60
2019,04,02,07,08,6.60
2019,04,02,07,09,6.60
2019,04,02,07,10,6.60
2019,04,02,07,11,6.50
2019,04,02,07,12,6.50
2019,04,02,07,13,6.50
2019,04,02,07,14,6.50
2019,04,02,07,15,6.50
2019,04,02,07,16,6.50
2019,04,02,07,17,6.40
2019,04,02,07,18,6.40
2019,04,02,07,19,6.40
2019,04,02,07,20,6.40
2019,04,02,07,21,6.40
2019,04,02,07,22,6.40
2019,04,02,07,23,6.30
2019,04,02,07,24,6.30
2019,04,02,07,25,6.30
2019,04,02,07,26,6.30
2019,04,02,07,27,6.30
2019,04,02,07,28,6.30
2019,04,02,07,29,6.30
2019,04,02,07,30,6.30
2019,04,02,07,31,6.30
2019,04,02,07,32,6.30
2019,04,02,07,33,6.30
2019,04,02,07,34,6.20
2019,04,02,07,35,6.20
2019,04,02,07,36,6.20
2019,04,02,07,37,6.20
2019,04,02,07,38,6.20
2019,04,02,07,39,6.30
2019,04,02,07,40,6.30
2019,04,02,07,41,6.30
2019,04,02,07,42,6.30
2019,04,02,07,43,6.30
2019,04,02,07,44,6.30
2019,04,02,07,45,6.30
2019,04,02,07,46,6.30
2019,04,02,07,47,6.30
2019,04,02,07,48,6.30
2019,04,02,07,49,6.40
2019,04,02,07,50,6.40
2019,04,02,07,51,6.40
2019,04,02,07,52,6.40
2019,04,02,07,53,6.40
2019,04,02,07,54,6.40
2019,04,02,07,55,6.40
2019,04,02,07,56,6.50
2019,04,02,07,57,6.50
2019,04,02,07,58,6.50
2019,04,02,07,59,6.60
2019,04,02,08,00,6.60
2019,04,02,08,01,6.60
2019,04,02,08,02,6.70
2019,04,02,08,03,6.70
2019,04,02,08,04,6.70
2019,04,02,08,05,6.80
2019,04,02,08,06,6.80
2019,04,02,08,07,6.80
2019,04,02,08,08,6.80
2019,04,02,08,09,6.90
2019,04,02,08,10,6.90
2019,04,02,08,11,6.90
2019,04,02,08,12,6.90
2019,04,02,08,13,7.00
2019,04,02,08,14,7.00
2019,04,02,08,15,7.00
2019,04,02,08,16,7.10
2019,04,02,08,17,7.10
2019,04,02,08,18,7.10
2019,04,02,08,19,7.20
2019,04,02,08,20,7.20
2019,04,02,08,21,7.30
2019,04,02,08,22,7.30
2019,04,02,08,23,7.40
2019,04,02,08,24,7.40
2019,04,02,08,25,7.50
2019,04,02,08,26,7.60
2019,04,02,08,27,7.70
2019,04,02,08,28,7.70
2019,04,02,08,29,7.80
2019,04,02,08,30,7.80
2019,04,02,08,31,7.90
2019,04,02,08,32,8.00
2019,04,02,08,33,8.00
2019,04,02,08,34,8.10
2019,04,02,08,35,8.20
2019,04,02,08,36,8.30
2019,04,02,08,37,8.40
2019,04,02,08,38,8.50
2019,04,02,08,39,8.60
2019,04,02,08,40,8.60
2019,04,02,08,41,8.80
2019,04,02,08,42,9.00
2019,04,02,08,43,9.20
2019,04,02,08,44,9.30
2019,04,02,08,45,9.50
2019,04,02,08,46,9.60
2019,04,02,08,47,9.70
2019,04,02,08,48,10.00
2019,04,02,08,49,10.40
2019,04,02,08,50,10.70
2019,04,02,08,51,10.90
2019,04,02,08,52,11.10
2019,04,02,08,53,11.40
2019,04,02,08,54,11.60
2019,04,02,08,55,11.80
2019,04,02,08,56,11.90
2019,04,02,08,57,12.00
2019,04,02,08,58,12.10
2019,04,02,08,59,12.10
2019,04,02,09,00,12.10
2019,04,02,09,01,12.20
2019,04,02,09,02,12.20
2019,04,02,09,03,12.20
2019,04,02,09,04,12.20
2019,04,02,09,05,12.20
2019,04,02,09,06,12.30
2019,04,02,09,07,12.30
2019,04,02,09,08,12.40
2019,04,02,09,09,12.50
2019,04,02,09,10,12.60
2019,04,02,09,11,12.60
2019,04,02,09,12,12.70
2019,04,02,09,13,12.80
2019,04,02,09,14,12.90
2019,04,02,09,15,13.00
2019,04,02,09,16,13.10
2019,04,02,09,17,13.10
2019,04,02,09,18,13.20
2019,04,02,09,19,13.20
2019,04,02,09,20,13.30
2019,04,02,09,21,13.30
2019,04,02,09,22,13.40
2019,04,02,09,23,13.50
2019,04,02,09,24,13.60
2019,04,02,09,25,13.70
2019,04,02,09,26,13.70
2019,04,02,09,27,13.80
2019,04,02,09,28,13.80
2019,04,02,09,29,13.80
2019,04,02,09,30,13.80
2019,04,02,09,31,13.80
2019,04,02,09,32,13.90
2019,04,02,09,33,13.90
2019,04,02,09,34,13.90
2019,04,02,09,35,14.00
2019,04,02,09,36,14.00
2019,04,02,09,37,14.00
2019,04,02,09,38,14.00
2019,04,02,09,39,14.10
2019,04,02,09,40,14.10
2019,04,02,09,41,14.00
2019,04,02,09,42,14.00
2019,04,02,09,43,14.00
2019,04,02,09,44,14.00
2019,04,02,09,45,14.00
2019,04,02,09,46,13.90
2019,04,02,09,47,13.90
2019,04,02,09,48,14.00
2019,04,02,09,49,14.00
2019,04,02,09,50,14.10
2019,04,02,09,51,14.10
2019,04,02,09,52,14.10
2019,04,02,09,53,14.10
2019,04,02,09,54,14.10
2019,04,02,09,55,14.10
2019,04,02,09,56,14.10
2019,04,02,09,57,14.20
2019,04,02,09,58,14.20
2019,04,02,09,59,14.20
2019,04,02,10,00,14.30
2019,04,02,10,01,14.30
2019,04,02,10,02,14.30
2019,04,02,10,03,14.30
2019,04,02,10,04,14.40
2019,04,02,10,05,14.40
2019,04,02,10,06,14.40
2019,04,02,10,07,14.50
2019,04,02,10,08,14.50
2019,04,02,10,09,14.50
2019,04,02,10,10,14.50
2019,04,02,10,11,14.60
2019,04,02,10,12,14.60
2019,04,02,10,13,14.60
2019,04,02,10,14,14.60
2019,04,02,10,15,14.60
2019,04,02,10,16,14.60
2019,04,02,10,17,14.60
2019,04,02,10,18,14.60
2019,04,02,10,19,14.60
2019,04,02,10,20,14.60
2019,04,02,10,21,14.60
2019,04,02,10,22,14.70
2019,04,02,10,23,14.70
2019,04,02,10,24,14.70
2019,04,02,10,25,14.70
2019,04,02,10,26,14.80
2019,04,02,10,27,14.80
2019,04,02,10,28,14.80
2019,04,02,10,29,14.80
2019,04,02,10,30,14.80
2019,04,02,10,31,14.90
2019,04,02,10,32,14.90
2019,04,02,10,33,14.90
2019,04,02,10,34,14.90
2019,04,02,10,35,14.90
2019,04,02,10,36,15.00
2019,04,02,10,37,15.00
2019,04,02,10,38,15.00
2019,04,02,10,39,15.00
2019,04,02,10,40,15.00
2019,04,02,10,41,15.00
2019,04,02,10,42,15.00
2019,04,02,10,43,15.00
2019,04,02,10,44,15.10
2019,04,02,10,45,15.10
2019,04,02,10,46,15.10
2019,04,02,10,47,15.20
2019,04,02,10,48,15.20
2019,04,02,10,49,15.20
2019,04,02,10,50,15.20
2019,04,02,10,51,15.30
2019,04,02,10,52,15.30
2019,04,02,10,53,15.30
2019,04,02,10,54,15.30
2019,04,02,10,55,15.30
2019,04,02,10,56,15.30
2019,04,02,10,57,15.30
2019,04,02,10,58,15.30
2019,04,02,10,59,15.30
2019,04,02,11,00,15.30
2019,04,02,11,01,15.30
2019,04,02,11,02,15.30
2019,04,02,11,03,15.30
2019,04,02,11,04,15.30
2019,04,02,11,05,15.30
2019,04,02,11,06,15.30
2019,04,02,11,07,15.40
2019,04,02,11,08,15.40
2019,04,02,11,09,15.40
2019,04,02,11,10,15.40
2019,04,02,11,11,15.40
2019,04,02,11,12,15.40
2019,04,02,11,13,15.40
2019,04,02,11,14,15.50
2019,04,02,11,15,15.50
2019,04,02,11,16,15.50
2019,04,02,11,17,15.50
2019,04,02,11,18,15.50
2019,04,02,11,19,15.60
2019,04,02,11,20,15.60
2019,04,02,11,21,15.60
2019,04,02,11,22,15.60
2019,04,02,11,23,15.70
2019,04,02,11,24,15.70
2019,04,02,11,25,15.70
2019,04,02,11,26,15.70
2019,04,02,11,27,15.70
2019,04,02,11,28,15.70
2019,04,02,11,29,15.70
2019,04,02,11,30,15.70
2019,04,02,11,31,15.70
2019,04,02,11,32,15.70
2019,04,02,11,33,15.70
2019,04,02,11,34,15.70
2019,04,02,11,35,15.70
2019,04,02,11,36,15.70
2019,04,02,11,37,15.70
2019,04,02,11,38,15.70
2019,04,02,11,39,15.70
2019,04,02,11,40,15.70
2019,04,02,11,41,15.70
2019,04,02,11,42,15.80
2019,04,02,11,43,15.80
2019,04,02,11,44,15.80
2019,04,02,11,45,15.90
2019,04,02,11,46,15.90
2019,04,02,11,47,15.90
2019,04,02,11,48,16.00
2019,04,02,11,49,16.00
2019,04,02,11,50,16.00
2019,04,02,11,51,16.10
2019,04,02,11,52,16.10
2019,04,02,11,53,16.00
2019,04,02,11,54,16.00
2019,04,02,11,55,15.90
2019,04,02,11,56,15.90
2019,04,02,11,57,15.90
2019,04,02,11,58,16.00
2019,04,02,11,59,16.00
2019,04,02,12,00,16.00
2019,04,02,12,01,16.00
2019,04,02,12,02,16.10
2019,04,02,12,03,16.10
2019,04,02,12,04,16.10
2019,04,02,12,05,16.10
2019,04,02,12,06,16.20
2019,04,02,12,07,16.20
2019,04,02,12,08,16.20
2019,04,02,12,09,16.20
2019,04,02,12,10,16.20
2019,04,02,12,11,16.20
2019,04,02,12,12,16.20
2019,04,02,12,13,16.20
2019,04,02,12,14,16.20
2019,04,02,12,15,16.10
2019,04,02,12,16,16.10
2019,04,02,12,17,16.10
2019,04,02,12,18,16.10
2019,04,02,12,19,16.20
2019,04,02,12,20,16.20
2019,04,02,12,21,16.20
2019,04,02,12,22,16.30
2019,04,02,12,23,16.30
2019,04,02,12,24,16.30
2019,04,02,12,25,16.30
2019,04,02,12,26,16.40
2019,04,02,12,27,16.40
2019,04,02,12,28,16.50
2019,04,02,12,29,16.50
2019,04,02,12,30,16.60
2019,04,02,12,31,16.60
2019,04,02,12,32,16.70
2019,04,02,12,33,16.80
2019,04,02,12,34,16.80
2019,04,02,12,35,16.80
2019,04,02,12,36,16.70
2019,04,02,12,37,16.70
2019,04,02,12,38,16.70
2019,04,02,12,39,16.70
2019,04,02,12,40,16.70
2019,04,02,12,41,16.70
2019,04,02,12,42,16.70
2019,04,02,12,43,16.70
2019,04,02,12,44,16.70
2019,04,02,12,45,16.70
2019,04,02,12,46,16.80
2019,04,02,12,47,16.80
2019,04,02,12,48,16.90
2019,04,02,12,49,16.90
2019,04,02,12,50,16.90
2019,04,02,12,51,16.90
2019,04,02,12,52,17.00
2019,04,02,12,53,17.00
2019,04,02,12,54,17.00
2019,04,02,12,55,17.00
2019,04,02,12,56,17.00
2019,04,02,12,57,17.10
2019,04,02,12,58,17.10
2019,04,02,12,59,17.10
2019,04,02,13,00,17.10
2019,04,02,13,01,17.10
2019,04,02,13,02,17.10
2019,04,02,13,03,17.20
2019,04,02,13,04,17.20
2019,04,02,13,05,17.20
2019,04,02,13,06,17.20
2019,04,02,13,07,17.20
2019,04,02,13,08,17.30
2019,04,02,13,09,17.30
2019,04,02,13,10,17.30
2019,04,02,13,11,17.40
2019,04,02,13,12,17.40
2019,04,02,13,13,17.40
2019,04,02,13,14,17.40
2019,04,02,13,15,17.50
2019,04,02,13,16,17.50
2019,04,02,13,17,17.60
2019,04,02,13,18,17.60
2019,04,02,13,19,17.60
2019,04,02,13,20,17.60
2019,04,02,13,21,17.60
2019,04,02,13,22,17.70
2019,04,02,13,23,17.70
2019,04,02,13,24,17.70
2019,04,02,13,25,17.70
2019,04,02,13,26,17.70
2019,04,02,13,27,17.70
2019,04,02,13,28,17.70
2019,04,02,13,29,17.60
2019,04,02,13,30,17.70
2019,04,02,13,31,17.70
2019,04,02,13,32,17.70
2019,04,02,13,33,17.70
2019,04,02,13,34,17.70
2019,04,02,13,35,17.80
2019,04,02,13,36,17.80
2019,04,02,13,37,17.80
2019,04,02,13,38,17.80
2019,04,02,13,39,17.80
2019,04,02,13,40,17.80
2019,04,02,13,41,17.80
2019,04,02,13,42,17.80
2019,04,02,13,43,17.80
2019,04,02,13,44,17.80
2019,04,02,13,45,17.80
2019,04,02,13,46,17.80
2019,04,02,13,47,17.80
2019,04,02,13,48,17.70
2019,04,02,13,49,17.70
2019,04,02,13,50,17.80
2019,04,02,13,51,17.70
2019,04,02,13,52,17.80
2019,04,02,13,53,17.80
2019,04,02,13,54,17.80
2019,04,02,13,55,17.80
2019,04,02,13,56,17.80
2019,04,02,13,57,17.80
2019,04,02,13,58,17.80
2019,04,02,13,59,17.80
2019,04,02,14,00,17.80
2019,04,02,14,01,17.80
2019,04,02,14,02,17.80
2019,04,02,14,03,17.80
2019,04,02,14,04,17.80
2019,04,02,14,05,17.80
2019,04,02,14,06,17.80
2019,04,02,14,07,17.80
2019,04,02,14,08,17.90
2019,04,02,14,09,17.90
2019,04,02,14,10,17.90
2019,04,02,14,11,17.90
2019,04,02,14,12,17.90
2019,04,02,14,13,17.90
2019,04,02,14,14,17.90
2019,04,02,14,15,17.90
2019,04,02,14,16,17.90
2019,04,02,14,17,18.00
2019,04,02,14,18,18.00
2019,04,02,14,19,18.00
2019,04,02,14,20,18.00
2019,04,02,14,21,18.00
2019,04,02,14,22,18.00
2019,04,02,14,23,18.00
2019,04,02,14,24,18.00
2019,04,02,14,25,18.10
2019,04,02,14,26,18.10
2019,04,02,14,27,18.10
2019,04,02,14,28,18.20
2019,04,02,14,29,18.20
2019,04,02,14,30,18.20
2019,04,02,14,31,18.30
2019,04,02,14,32,18.20
2019,04,02,14,33,18.20
2019,04,02,14,34,18.20
2019,04,02,14,35,18.20
2019,04,02,14,36,18.20
2019,04,02,14,37,18.20
2019,04,02,14,38,18.20
2019,04,02,14,39,18.20
2019,04,02,14,40,18.10
2019,04,02,14,41,18.10
2019,04,02,14,42,18.10
2019,04,02,14,43,18.10
2019,04,02,14,44,18.00
2019,04,02,14,45,18.00
2019,04,02,14,46,18.00
2019,04,02,14,47,17.90
2019,04,02,14,48,17.90
2019,04,02,14,49,17.80
2019,04,02,14,50,17.80
2019,04,02,14,51,17.80
2019,04,02,14,52,17.80
2019,04,02,14,53,17.70
2019,04,02,14,54,17.70
2019,04,02,14,55,17.70
2019,04,02,14,56,17.70
2019,04,02,14,57,17.70
2019,04,02,14,58,17.70
2019,04,02,14,59,17.70
2019,04,02,15,00,17.70
2019,04,02,15,01,17.70
2019,04,02,15,02,17.70
2019,04,02,15,03,17.80
2019,04,02,15,04,17.80
2019,04,02,15,05,17.90
2019,04,02,15,06,17.90
2019,04,02,15,07,17.90
2019,04,02,15,08,17.90
2019,04,02,15,09,18.00
2019,04,02,15,10,18.00
2019,04,02,15,11,18.00
2019,04,02,15,12,18.00
2019,04,02,15,13,18.00
2019,04,02,15,14,18.00
2019,04,02,15,15,18.00
2019,04,02,15,16,18.00
2019,04,02,15,17,18.00
2019,04,02,15,18,17.90
2019,04,02,15,19,17.90
2019,04,02,15,20,17.90
2019,04,02,15,21,18.00
2019,04,02,15,22,18.00
2019,04,02,15,23,18.00
2019,04,02,15,24,18.00
2019,04,02,15,25,18.10
2019,04,02,15,26,18.10
2019,04,02,15,27,18.10
2019,04,02,15,28,18.10
2019,04,02,15,29,18.10
2019,04,02,15,30,18.10
2019,04,02,15,31,18.10
2019,04,02,15,32,18.10
2019,04,02,15,33,18.10
2019,04,02,15,34,18.10
2019,04,02,15,35,18.00
2019,04,02,15,36,18.00
2019,04,02,15,37,18.00
2019,04,02,15,38,18.00
2019,04,02,15,39,17.90
2019,04,02,15,40,17.90
2019,04,02,15,41,17.90
2019,04,02,15,42,17.90
2019,04,02,15,43,17.90
2019,04,02,15,44,17.90
2019,04,02,15,45,17.90
2019,04,02,15,46,17.90
2019,04,02,15,47,17.90
2019,04,02,15,48,17.90
2019,04,02,15,49,17.90
2019,04,02,15,50,17.90
2019,04,02,15,51,17.90
2019,04,02,15,52,17.90
2019,04,02,15,53,17.90
2019,04,02,15,54,17.90
2019,04,02,15,55,17.90
2019,04,02,15,56,17.90
2019,04,02,15,57,17.80
2019,04,02,15,58,17.80
2019,04,02,15,59,17.80
2019,04,02,16,00,17.80
2019,04,02,16,01,17.80
2019,04,02,16,02,17.80
2019,04,02,16,03,17.80
2019,04,02,16,04,17.80
2019,04,02,16,05,17.80
2019,04,02,16,06,17.80
2019,04,02,16,07,17.80
2019,04,02,16,08,17.80
2019,04,02,16,09,17.80
2019,04,02,16,10,17.80
2019,04,02,16,11,17.80
2019,04,02,16,12,17.80
2019,04,02,16,13,17.80
2019,04,02,16,14,17.80
2019,04,02,16,15,17.80
2019,04,02,16,16,17.80
2019,04,02,16,17,17.70
2019,04,02,16,18,17.70
2019,04,02,16,19,17.70
2019,04,02,16,20,17.70
2019,04,02,16,21,17.70
2019,04,02,16,22,17.70
2019,04,02,16,23,17.70
2019,04,02,16,24,17.70
2019,04,02,16,25,17.70
2019,04,02,16,26,17.60
2019,04,02,16,27,17.60
2019,04,02,16,28,17.70
2019,04,02,16,29,17.70
2019,04,02,16,30,17.70
2019,04,02,16,31,17.70
2019,04,02,16,32,17.70
2019,04,02,16,33,17.70
2019,04,02,16,34,17.70
2019,04,02,16,35,17.70
2019,04,02,16,36,17.70
2019,04,02,16,37,17.70
2019,04,02,16,38,17.70
2019,04,02,16,39,17.70
2019,04,02,16,40,17.70
2019,04,02,16,41,17.70
2019,04,02,16,42,17.70
2019,04,02,16,43,17.70
2019,04,02,16,44,17.80
2019,04,02,16,45,17.80
2019,04,02,16,46,17.80
2019,04,02,16,47,17.80
2019,04,02,16,48,17.80
2019,04,02,16,49,17.80
2019,04,02,16,50,17.80
2019,04,02,16,51,17.80
2019,04,02,16,52,17.80
2019,04,02,16,53,17.80
2019,04,02,16,54,17.80
2019,04,02,16,55,17.80
2019,04,02,16,56,17.80
2019,04,02,16,57,17.80
2019,04,02,16,58,17.80
2019,04,02,16,59,17.80
2019,04,02,17,00,17.80
2019,04,02,17,01,17.80
2019,04,02,17,02,17.70
2019,04,02,17,03,17.80
2019,04,02,17,04,17.80
2019,04,02,17,05,17.80
2019,04,02,17,06,17.80
2019,04,02,17,07,17.80
2019,04,02,17,08,17.80
2019,04,02,17,09,17.80
2019,04,02,17,10,17.80
2019,04,02,17,11,17.80
2019,04,02,17,12,17.80
2019,04,02,17,13,17.80
2019,04,02,17,14,17.80
2019,04,02,17,15,17.80
2019,04,02,17,16,17.80
2019,04,02,17,17,17.80
2019,04,02,17,18,17.80
2019,04,02,17,19,17.80
2019,04,02,17,20,17.80
2019,04,02,17,21,17.80
2019,04,02,17,22,17.70
2019,04,02,17,23,17.70
2019,04,02,17,24,17.70
2019,04,02,17,25,17.70
2019,04,02,17,26,17.70
2019,04,02,17,27,17.70
2019,04,02,17,28,17.80
2019,04,02,17,29,17.70
2019,04,02,17,30,17.70
2019,04,02,17,31,17.70
2019,04,02,17,32,17.70
2019,04,02,17,33,17.70
2019,04,02,17,34,17.70
2019,04,02,17,35,17.70
2019,04,02,17,36,17.60
2019,04,02,17,37,17.60
2019,04,02,17,38,17.60
2019,04,02,17,39,17.60
2019,04,02,17,40,17.60
2019,04,02,17,41,17.60
2019,04,02,17,42,17.60